EN

Hourly Weather Aluthgama

Today, 25 January, Monday

Time Temperature Precipitation Wind Pressure Humidity
00:00 +23°C° 0 mm 5 mps 757 mmHg 83%
01:00 +23°C° 0 mm 5 mps 756 mmHg 84%
02:00 +22°C° 0 mm 5 mps 756 mmHg 86%
03:00 +22°C° 0 mm 5 mps 756 mmHg 87%
04:00 +22°C° 0 mm 5 mps 756 mmHg 88%
05:00 +22°C° 0 mm 5 mps 756 mmHg 91%
06:00 +23°C° 0 mm 5 mps 757 mmHg 86%
07:00 +25°C° 0 mm 5 mps 757 mmHg 81%
08:00 +26°C° 0 mm 5 mps 758 mmHg 76%
09:00 +28°C° 0 mm 5 mps 757 mmHg 70%
10:00 +29°C° 0 mm 4 mps 757 mmHg 63%
11:00 +32°C° 0 mm 4 mps 757 mmHg 56%
12:00 +33°C° 0 mm 5 mps 756 mmHg 54%
13:00 +33°C° 0 mm 5 mps 756 mmHg 52%
14:00 +34°C° 0 mm 5 mps 755 mmHg 49%
15:00 +32°C° 0 mm 5 mps 755 mmHg 55%
16:00 +30°C° 0 mm 5 mps 755 mmHg 61%
17:00 +29°C° 0 mm 5 mps 755 mmHg 66%
18:00 +28°C° 0 mm 5 mps 755 mmHg 70%
19:00 +27°C° 0 mm 6 mps 756 mmHg 73%
20:00 +24°C° 0 mm 6 mps 756 mmHg 76%
21:00 +24°C° 0 mm 6 mps 757 mmHg 77%
22:00 +23°C° 0 mm 6 mps 757 mmHg 78%
23:00 +23°C° 0 mm 6 mps 757 mmHg 78%

Tomorrow, 26 January, Tuesday

Time Temperature Precipitation Wind Pressure Humidity
00:00 +22°C° 0 mm 6 mps 756 mmHg 81%
01:00 +22°C° 0 mm 6 mps 756 mmHg 84%
02:00 +21°C° 0 mm 5 mps 755 mmHg 87%
03:00 +21°C° 0 mm 5 mps 755 mmHg 88%
04:00 +21°C° 0 mm 5 mps 755 mmHg 88%
05:00 +21°C° 0 mm 5 mps 755 mmHg 88%
06:00 +22°C° 0 mm 5 mps 756 mmHg 83%
07:00 +23°C° 0 mm 6 mps 756 mmHg 78%
08:00 +24°C° 0 mm 6 mps 757 mmHg 73%
09:00 +27°C° 0 mm 6 mps 757 mmHg 67%
10:00 +28°C° 0 mm 6 mps 757 mmHg 61%
11:00 +30°C° 0 mm 6 mps 757 mmHg 56%
12:00 +32°C° 0 mm 6 mps 756 mmHg 54%
13:00 +32°C° 0 mm 6 mps 755 mmHg 53%
14:00 +33°C° 0 mm 6 mps 754 mmHg 51%
15:00 +32°C° 0 mm 5 mps 754 mmHg 55%
16:00 +30°C° 0 mm 5 mps 754 mmHg 59%
17:00 +29°C° 0 mm 4 mps 754 mmHg 63%
18:00 +27°C° 0 mm 5 mps 755 mmHg 67%
19:00 +26°C° 0 mm 6 mps 755 mmHg 71%
20:00 +24°C° 0 mm 6 mps 755 mmHg 75%
21:00 +23°C° 0 mm 6 mps 756 mmHg 77%
22:00 +23°C° 0 mm 6 mps 756 mmHg 79%
23:00 +22°C° 0 mm 6 mps 756 mmHg 81%

Day after tomorrow, 27 January, Wednesday

Time Temperature Precipitation Wind Pressure Humidity
00:00 +22°C° 0 mm 5 mps 755 mmHg 83%
01:00 +22°C° 0 mm 5 mps 755 mmHg 84%
02:00 +21°C° 0 mm 5 mps 754 mmHg 86%
03:00 +21°C° 0 mm 5 mps 754 mmHg 87%
04:00 +21°C° 0 mm 5 mps 754 mmHg 89%
05:00 +21°C° 0 mm 5 mps 754 mmHg 90%
06:00 +22°C° 0 mm 5 mps 755 mmHg 85%
07:00 +23°C° 0 mm 5 mps 756 mmHg 80%
08:00 +26°C° 0 mm 5 mps 756 mmHg 75%
09:00 +27°C° 0 mm 5 mps 756 mmHg 69%
10:00 +29°C° 0 mm 5 mps 756 mmHg 63%
11:00 +32°C° 0 mm 4 mps 756 mmHg 57%
12:00 +32°C° 0 mm 4 mps 755 mmHg 56%
13:00 +33°C° 0 mm 4 mps 755 mmHg 55%
14:00 +33°C° 0 mm 4 mps 754 mmHg 54%
15:00 +32°C° 0.1 mm 5 mps 754 mmHg 60%
16:00 +30°C° 0.1 mm 5 mps 754 mmHg 65%
17:00 +29°C° 0.1 mm 5 mps 754 mmHg 71%
18:00 +28°C° 0 mm 5 mps 755 mmHg 76%
19:00 +26°C° 0 mm 4 mps 755 mmHg 81%
20:00 +25°C° 0 mm 4 mps 756 mmHg 86%
21:00 +25°C° 0 mm 4 mps 756 mmHg 85%
22:00 +25°C° 0 mm 5 mps 756 mmHg 85%
23:00 +23°C° 0 mm 5 mps 756 mmHg 84%

28 January, Thursday

Time Temperature Precipitation Wind Pressure Humidity
00:00 +23°C° 0 mm 5 mps 756 mmHg 86%
01:00 +23°C° 0 mm 4 mps 755 mmHg 87%
02:00 +22°C° 0 mm 4 mps 755 mmHg 89%
03:00 +22°C° 0 mm 4 mps 755 mmHg 89%
04:00 +22°C° 0 mm 5 mps 755 mmHg 89%
05:00 +22°C° 0 mm 5 mps 755 mmHg 89%
06:00 +23°C° 0 mm 5 mps 755 mmHg 86%
07:00 +25°C° 0 mm 5 mps 756 mmHg 82%
08:00 +26°C° 0 mm 5 mps 756 mmHg 79%
09:00 +28°C° 0 mm 5 mps 756 mmHg 73%
10:00 +29°C° 0 mm 5 mps 756 mmHg 67%
11:00 +32°C° 0 mm 5 mps 756 mmHg 62%
12:00 +32°C° 0.1 mm 5 mps 755 mmHg 65%
13:00 +30°C° 0.1 mm 5 mps 755 mmHg 68%
14:00 +30°C° 0.1 mm 5 mps 754 mmHg 72%
15:00 +29°C° 0.5 mm 5 mps 754 mmHg 75%
16:00 +28°C° 0.5 mm 5 mps 754 mmHg 79%
17:00 +28°C° 0.5 mm 5 mps 754 mmHg 83%
18:00 +27°C° 0.2 mm 5 mps 755 mmHg 84%
19:00 +26°C° 0.2 mm 6 mps 756 mmHg 86%
20:00 +26°C° 0.2 mm 6 mps 756 mmHg 87%
21:00 +26°C° 0 mm 6 mps 756 mmHg 87%
22:00 +26°C° 0 mm 6 mps 756 mmHg 87%
23:00 +25°C° 0 mm 5 mps 756 mmHg 87%

29 January, Friday

Time Temperature Precipitation Wind Pressure Humidity
00:00 +25°C° 0 mm 5 mps 756 mmHg 88%
01:00 +25°C° 0 mm 5 mps 755 mmHg 89%
02:00 +25°C° 0 mm 4 mps 755 mmHg 90%
03:00 +25°C° 0 mm 4 mps 755 mmHg 90%
04:00 +25°C° 0 mm 4 mps 755 mmHg 91%
05:00 +25°C° 0 mm 4 mps 755 mmHg 91%
06:00 +26°C° 0 mm 4 mps 755 mmHg 87%
07:00 +27°C° 0 mm 5 mps 756 mmHg 82%
08:00 +28°C° 0 mm 5 mps 756 mmHg 77%
09:00 +30°C° 0 mm 4 mps 756 mmHg 71%
10:00 +32°C° 0 mm 4 mps 756 mmHg 65%
11:00 +34°C° 0 mm 4 mps 756 mmHg 59%
12:00 +34°C° 0.6 mm 4 mps 755 mmHg 62%
13:00 +34°C° 0.6 mm 5 mps 754 mmHg 64%
14:00 +34°C° 0.6 mm 5 mps 754 mmHg 66%
15:00 +32°C° 2.6 mm 5 mps 754 mmHg 73%
16:00 +30°C° 2.6 mm 5 mps 754 mmHg 81%
17:00 +28°C° 2.6 mm 5 mps 754 mmHg 89%
18:00 +27°C° 0.9 mm 5 mps 754 mmHg 90%
19:00 +27°C° 0.9 mm 5 mps 755 mmHg 92%
20:00 +26°C° 0.9 mm 5 mps 756 mmHg 93%
21:00 +26°C° 0.5 mm 5 mps 756 mmHg 94%
22:00 +26°C° 0.5 mm 5 mps 756 mmHg 95%
23:00 +25°C° 0.5 mm 5 mps 756 mmHg 95%

30 January, Saturday

Time Temperature Precipitation Wind Pressure Humidity
00:00 +25°C° 0.7 mm 4 mps 755 mmHg 96%
01:00 +25°C° 0.7 mm 4 mps 755 mmHg 96%
02:00 +25°C° 0.7 mm 4 mps 755 mmHg 96%
03:00 +25°C° 0.3 mm 4 mps 755 mmHg 96%
04:00 +25°C° 0.3 mm 4 mps 755 mmHg 96%
05:00 +25°C° 0.3 mm 3 mps 755 mmHg 96%
06:00 +26°C° 0 mm 3 mps 755 mmHg 93%
07:00 +27°C° 0 mm 3 mps 756 mmHg 90%
08:00 +27°C° 0 mm 3 mps 756 mmHg 87%
09:00 +29°C° 0 mm 3 mps 756 mmHg 77%
10:00 +31°C° 0 mm 3 mps 756 mmHg 68%
11:00 +34°C° 0 mm 3 mps 756 mmHg 59%
12:00 +34°C° 0.9 mm 3 mps 755 mmHg 64%
13:00 +33°C° 0.9 mm 4 mps 754 mmHg 70%
14:00 +32°C° 0.9 mm 4 mps 753 mmHg 76%
15:00 +30°C° 1.9 mm 4 mps 753 mmHg 80%
16:00 +29°C° 1.9 mm 4 mps 753 mmHg 84%
17:00 +28°C° 1.9 mm 5 mps 753 mmHg 88%
18:00 +28°C° 0.5 mm 5 mps 754 mmHg 89%
19:00 +27°C° 0.5 mm 5 mps 755 mmHg 91%
20:00 +26°C° 0.5 mm 5 mps 756 mmHg 92%
21:00 +26°C° 0 mm 5 mps 756 mmHg 93%
22:00 +26°C° 0 mm 4 mps 756 mmHg 94%
23:00 +25°C° 0 mm 4 mps 756 mmHg 95%
Show more